ARIANE 5 DEB [SYLDA] (43273 NORAD) Tracking and Keplerian Element Data

This shows tracking and keplerian element data for the satellite.

Feedback or suggestion? Click here.




ElementValue
Catalog43273
NameARIANE 5 DEB [SYLDA]
Epoch Orbit65
Epoch Day124.01284307
Epoch Year2018
RAAN334.4795
Inclination2.9909
Eccentricity0.7268729
Argument of Perigee200.8933
Mean Anonmoly98.1252
Mean Motion2.28945934
Decay Rate4.014E-05
L11 43273U 18033C 18124.01284307 .00004014 00000-0 15514-2 0 9992
L22 43273 2.9909 334.4795 7268729 200.8933 98.1252 2.28945934 655



Live tracking and technical data element details for ARIANE 5 DEB [SYLDA] (NORAD 43273). ARIANE 5 DEB [SYLDA] can be tracked NOW for your location showing map with azimuth and elevation plus other details from your city location.







IsCatalogInMostPopularTable: catalog: 43273, numindb: 405
Update: records affected: 1



GetName: 43273 ARIANE 5 DEB [SYLDA]

Hit Count: updated at: Thu, 15 May 2025 10:04:11 GMT